Regional Weather Roundup
Issued by NWS Cleveland, OH

Home | Current Version | Previous Version | Graphics & Text | Print | Product List | Glossary On
Versions: 1 2 3 4 5 6 7 8 9 10 11 12 13 14 15 16 17 18 19 20 21 22 23 24 25 26 27 28 29 30 31 32 33 34 35 36 37 38 39 40 41 42 43 44 45 46 47 48 49 50
000
ASUS41 KCLE 291102
RWRCLE
OHIO REGIONAL WEATHER ROUNDUP
NATIONAL WEATHER SERVICE CLEVELAND, OH
600 AM EST THU JAN 29 2015

NOTE: "FAIR" INDICATES FEW OR NO CLOUDS BELOW 12,000 FEET WITH NO
SIGNIFICANT WEATHER AND/OR OBSTRUCTIONS TO VISIBILITY.

OHZ001>008-015>018-024>027-034-035-043-044-291200-
   NORTHWEST OHIO

CITY           SKY/WX    TMP DP  RH WIND       PRES   REMARKS
DEFIANCE       LGT RAIN  33  24  69 SE6       29.83F WCI  28
FINDLAY        CLOUDY    32  21  64 S16       29.85F WCI  21
TOLEDO EXPRESS MIX PCPN  29  21  72 SE5       29.86F WCI  24
TOLEDO EXEC    CLOUDY    32  20  61 S13       29.88F WCI  22
LIMA           LGT RAIN  36  23  59 S23G33    29.84F
$$

OHZ009>014-019>023-028>033-038-089-291200-
   NORTHEAST OHIO

CITY           SKY/WX    TMP DP  RH WIND       PRES   REMARKS
CLE-HOPKINS    CLOUDY    31  13  47 S14       29.97F WCI  21
CLE-LAKEFRONT  CLOUDY    31   9  39 S16G25    29.95F WCI  20
CUY CO. ARPT   NOT AVBL
LORAIN-ELYRIA  CLOUDY    29  17  61 S16G24    29.94F WCI  17
ASHTABULA      CLOUDY    25   7  46 SE15G25   30.02F WCI  13
AKRON-CANTON   CLOUDY    28  12  51 S18       29.99F WCI  15
WOOSTER        CLOUDY    27  17  66 S9        29.97F WCI  18
MANSFIELD      CLOUDY    30  19  63 S23       29.92F WCI  17
YOUNGSTOWN     CLOUDY    24  11  57 SE15      30.03F WCI  11
$$

OHZ042-051>053-060>062-070>072-077>081-291200-
  SOUTHWEST OHIO

CITY           SKY/WX    TMP DP  RH WIND       PRES   REMARKS
CINC-COVINGTON RAIN      35  27  72 S13       29.93F WCI  26
CINC-LUNKEN    RAIN      34  26  72 S8        29.97F WCI  27
HAMILTON       RAIN      34  29  82 SE5       29.95F WCI  30
DAYTON         LGT RAIN  35  27  72 S21G28    29.89F WCI  24
WRIGHT-PAT AFB NOT AVBL
DAYTON GENERAL LGT RAIN  36  25  64 S20       29.91F
WILMINGTON     CLOUDY    33  20  58 S17       29.93F WCI  22
$$

OHZ036-037-039>041-045>050-054>059-063>069-073>076-082>088-291200-
  CENTRAL AND SOUTHEAST OHIO

CITY           SKY/WX    TMP DP  RH WIND       PRES   REMARKS
COLUMBUS       CLOUDY    29  18  63 SE12      29.97F WCI  19
OSU AIRPORT    CLOUDY    30  19  63 S14G21    29.95F WCI  19
BOLTON FIELD   NOT AVBL
RICKENBACK AFB NOT AVBL
NEWARK         CLOUDY    29  18  63 S9        30.00F WCI  20
MARION         CLOUDY    32  19  58 S20G25    29.92F WCI  20
LANCASTER      MOCLDY    30  19  63 SE10      29.99F WCI  21
ZANESVILLE     CLOUDY    26  14  60 SE12      30.01F WCI  16
NEW PHILLY     CLOUDY    26  15  63 SE13      30.03F WCI  15
$$


USA.gov is the U.S. government's official web portal to all federal, state and local government web resources and services.